Location: Hohe Wand Waldeggerhaus
(47.8500°N, 16.0440°E)
Time: 08:47:38
(UTC+02:00)

Envisat - Pass Details

Date: 23 May 2024
Orbit: 762 x 764 km, 98.3° (Epoch: 13 June)

Event Time Altitude Azimuth Distance (km) Brightness Sun altitude
Rises 03:31:34 0° 22° (NNE) 3,239 7.9 -12.8°
Reaches altitude 10° 03:34:08 10° 32° (NNE) 2,307 7.0 -12.5°
Maximum altitude 03:38:39 32° 95° (E) 1,301 4.6 -12.1°
Drops below altitude 10° 03:43:08 10° 158° (SSE) 2,291 5.2 -11.6°
Sets 03:45:40 0° 168° (SSE) 3,212 5.9 -11.3°
Enters shadow 03:45:47 - 169° (SSE) 3,259 5.9 -11.3°
